sat.trackr.live / text

‹ back to catalog

STARLINK-31757

NORAD 59427 · 2024-065G

PAYLOAD ACTIVE UNKNOWN

§ Identity

Operator
Country
US
Launch date
2024-04-07
Launch site
AFWTR
Launch vehicle
Mass (kg)
RCS (m²)

Purposes: comms

External: N2YO · Heavens-Above · Gunter

§ Orbital elements

Epoch: 2026-09-21T19:18:55.115712Z

Period
93.85 min
Inclination
53.1607°
Eccentricity
0.0001223
Mean motion
15.34392133 rev/d
Perigee alt
461.9 km
Apogee alt
463.6 km
Semi-major
6,840.9 km
B*
4.6719e-5
RAAN
87.3387°
Arg perigee
93.1558°
Mean anomaly
266.9585°
Rev number
13,900

§ Raw data

STARLINK-317571 59427U 24065G   26264.80480458  .00001202  00000+0  46719-4 0  99962 59427  53.1607  87.3387 0001223  93.1558 266.9585 15.34392133139004

JSON: /api/v1/satellites/59427 · /tle

For live sub-satellite position, see the globe view (requires WebGL).

§ Visibility from observer

Set your observer location to see the next 7 days of passes ≥ 10°. The values pass through the URL so the page stays shareable.

No JS? Fill the form by hand. The geolocation button needs JavaScript.